Flag for Germany

Past Weather in Stuhr, Lower Saxony, Germany — Yesterday and Last 2 Weeks

Now
66 °F

Passing clouds.


Feels Like: 66 °F
Forecast: 61 / 50 °F
Wind: 18 mph from Southwest

Location: Bremen Airport

Current Time: Jul 7, 2020 at 2:34:56 pm

Latest Report: Jul 7, 2020 at 1:50 pm


Visibility: N/A

Pressure: 30.04 "Hg

Humidity: 49%

Dew Point: 46 °F

Location of StuhrLocation

Past Weather in Stuhr — Graph

°F

Stuhr Temperature Yesterday

Maximum temperature yesterday: 64 °F (at 11:50 am)
Minimum temperature yesterday: 52 °F (at 11:50 pm)
Average temperature yesterday: 59 °F

High & Low Weather Summary for the Past Weeks

 TemperatureHumidityPressure
High86 °F (Jun 26, 2:50 pm)100% (Jun 23, 2:20 am)30.30 "Hg (Jun 23, 2:20 am)
Low48 °F (Jun 23, 4:20 am)28% (Jun 24, 1:20 pm)29.65 "Hg (Jul 1, 2:50 pm)
Average66 °F69%29.92 "Hg
* Reported Jun 22 1:20 pm — Jul 7 1:20 pm, Stuhr. Weather by CustomWeather, © 2020

Note: Actual official high and low records may vary slightly from our data, if they occured in-between our weather recording intervals... More about our weather records

Stuhr Weather History for the Previous 24 Hours

Scroll right to see more
 ConditionsComfort  
Time TempWeatherWind HumidityBarometerVisibility
1:20 pm
Tue, Jul 7
66 °FScattered clouds.18 mph49%30.04 "HgN/A
12:50 pm66 °FScattered clouds.17 mph52%30.04 "HgN/A
12:20 pm64 °FScattered clouds.13 mph52%30.07 "HgN/A
11:50 am63 °FPassing clouds.9 mph56%30.07 "HgN/A
11:20 am63 °FPassing clouds.9 mph56%30.07 "HgN/A
10:50 am61 °FPassing clouds.9 mph63%30.09 "HgN/A
10:20 am61 °FPassing clouds.14 mph63%30.09 "HgN/A
9:50 am61 °FPassing clouds.13 mph63%30.09 "HgN/A
9:20 am59 °FPassing clouds.13 mph68%30.09 "HgN/A
8:50 am59 °FPassing clouds.12 mph72%30.09 "HgN/A
8:20 am57 °FSunny.10 mph72%30.09 "Hg10 mi
7:50 am55 °FSunny.9 mph82%30.09 "Hg10 mi
7:20 am54 °FPassing clouds.9 mph82%30.09 "HgN/A
6:50 am52 °FPassing clouds.9 mph88%30.09 "HgN/A
6:20 am52 °FPassing clouds.7 mph94%30.09 "HgN/A
5:50 am48 °FSunny.2 mph94%30.09 "Hg10 mi
5:20 am48 °FSunny.5 mph94%30.07 "Hg10 mi
4:50 am48 °FClear.7 mph94%30.07 "Hg10 mi
4:20 am48 °FPassing clouds.8 mph94%30.07 "HgN/A
3:50 am50 °FPassing clouds.8 mph94%30.09 "HgN/A
3:20 am52 °FPassing clouds.9 mph88%30.09 "HgN/A
2:50 am52 °FClear.10 mph88%30.09 "Hg10 mi
1:50 am52 °FPassing clouds.10 mph94%30.09 "HgN/A
1:20 am52 °FClear.12 mph94%30.07 "Hg10 mi
12:50 am52 °FClear.8 mph94%30.07 "Hg10 mi
12:20 am52 °FPassing clouds.10 mph94%30.07 "HgN/A
11:50 pm
Mon, Jul 6
52 °FPassing clouds.7 mph94%30.07 "HgN/A
11:20 pm54 °FPassing clouds.8 mph88%30.07 "HgN/A
10:50 pm54 °FPassing clouds.9 mph94%30.04 "HgN/A
10:20 pm55 °FPassing clouds.9 mph88%30.04 "HgN/A
9:50 pm55 °FPassing clouds.9 mph88%30.04 "HgN/A
9:20 pm55 °FPassing clouds.8 mph88%30.01 "HgN/A
8:50 pm55 °FScattered showers. Passing clouds.10 mph82%30.01 "HgN/A
8:20 pm57 °FSprinkles. Scattered clouds.18 mph77%30.01 "Hg5 mi
7:50 pm61 °FPassing clouds.16 mph68%29.98 "HgN/A
7:20 pm61 °FSprinkles. Passing clouds.20 mph68%29.98 "HgN/A
6:50 pm61 °FScattered clouds.24 mph63%29.95 "HgN/A
6:20 pm64 °FPassing clouds.22 mph56%29.95 "HgN/A
5:50 pm63 °FPassing clouds.21 mph59%29.95 "HgN/A
5:20 pm63 °FPassing clouds.17 mph64%29.92 "HgN/A
4:50 pm59 °FSprinkles. Scattered clouds.23 mph72%29.92 "HgN/A
4:20 pm61 °FPassing clouds.24 mph63%29.92 "HgN/A
3:50 pm64 °FPassing clouds.25 mph56%29.89 "HgN/A
2:50 pm61 °FPassing clouds.20 mph68%29.89 "HgN/A
2:20 pm61 °FScattered clouds.21 mph72%29.86 "HgN/A
Weather by CustomWeather, © 2020

See weather overview